Location: Góry Miechowskie
(50.3599°N, 20.1803°E)
Time: 01:46:30
(UTC+00:00)

S-56A Canister/Altair - Pass Details

Date: 19 September 2024
Orbit: 636 x 2487 km, 38.9° (Epoch: 15 October)

Event Time Altitude Azimuth Distance (km) Brightness Sun altitude
Rises 15:16:59 0° 203° (SSW) 2,974 11.1 12.8°
Reaches altitude 10° 15:20:27 10° 174° (S) 2,204 10.0 12.3°
Maximum altitude 15:22:40 13° 147° (SSE) 2,135 9.7 12.0°
Drops below altitude 10° 15:25:07 10° 121° (ESE) 2,496 9.8 11.6°
Sets 15:29:38 0° 96° (E) 3,803 10.5 10.9°
